TimeMST,TemperatureF,Dew PointF,Humidity,Sea Level PressureIn,VisibilityMPH,Wind Direction,Wind SpeedMPH,Gust SpeedMPH,PrecipitationIn,Events,Conditions,WindDirDegrees,DateUTC
12:53 AM,21.9,14.0,72,30.25,10.0,Calm,Calm,-,N/A,,Clear,0,2014-01-20 07:53:00
1:53 AM,19.9,12.9,74,30.25,10.0,NNE,5.8,-,N/A,,Clear,20,2014-01-20 08:53:00
2:53 AM,15.1,10.0,80,30.27,10.0,ENE,4.6,-,N/A,,Clear,60,2014-01-20 09:53:00
3:53 AM,12.0,8.1,84,30.29,10.0,NE,3.5,-,N/A,,Clear,50,2014-01-20 10:53:00
4:53 AM,12.9,9.0,84,30.30,10.0,ENE,3.5,-,N/A,,Clear,60,2014-01-20 11:53:00
5:53 AM,15.1,10.9,84,30.34,10.0,East,3.5,-,N/A,,Clear,80,2014-01-20 12:53:00
6:53 AM,14.0,9.0,80,30.39,10.0,North,3.5,-,N/A,,Clear,10,2014-01-20 13:53:00
7:53 AM,18.0,12.0,78,30.43,10.0,North,4.6,-,N/A,,Clear,10,2014-01-20 14:53:00
8:53 AM,23.0,12.9,65,30.41,10.0,East,4.6,-,N/A,,Clear,80,2014-01-20 15:53:00
9:53 AM,30.9,16.0,54,30.42,10.0,East,4.6,-,N/A,,Clear,100,2014-01-20 16:53:00
10:53 AM,37.0,16.0,42,30.41,10.0,Variable,3.5,-,N/A,,Clear,0,2014-01-20 17:53:00
11:53 AM,43.0,15.1,32,30.36,10.0,Calm,Calm,-,N/A,,Clear,0,2014-01-20 18:53:00
12:53 PM,46.0,12.9,26,30.32,10.0,ENE,3.5,-,N/A,,Clear,60,2014-01-20 19:53:00
1:53 PM,48.0,12.0,24,30.30,10.0,Calm,Calm,-,N/A,,Clear,0,2014-01-20 20:53:00
2:53 PM,48.9,12.9,24,30.32,10.0,WSW,3.5,-,N/A,,Clear,250,2014-01-20 21:53:00
3:53 PM,48.9,14.0,25,30.35,10.0,SW,6.9,-,N/A,,Clear,230,2014-01-20 22:53:00
4:53 PM,46.0,15.1,29,30.38,10.0,SW,6.9,-,N/A,,Clear,230,2014-01-20 23:53:00
5:53 PM,39.0,14.0,36,30.44,10.0,WSW,5.8,-,N/A,,Clear,250,2014-01-21 00:53:00
6:53 PM,30.9,14.0,50,30.51,10.0,North,8.1,-,N/A,,Clear,10,2014-01-21 01:53:00
7:53 PM,28.9,12.9,51,30.53,10.0,NE,4.6,-,N/A,,Clear,50,2014-01-21 02:53:00
8:53 PM,24.1,14.0,65,30.55,10.0,Calm,Calm,-,N/A,,Clear,0,2014-01-21 03:53:00
9:53 PM,25.0,12.9,60,30.53,10.0,Calm,Calm,-,N/A,,Clear,0,2014-01-21 04:53:00
10:53 PM,24.1,9.0,53,30.51,10.0,North,5.8,-,N/A,,Clear,350,2014-01-21 05:53:00
11:53 PM,16.0,8.1,71,30.54,10.0,Calm,Calm,-,N/A,,Clear,0,2014-01-21 06:53:00